Tokoname, Japan
Current Conditions -  °F | °C
As of 10:00 AM on Saturday 25 Oct 2014 (Local Time) from RJGG Reporting Station
Scattered Clouds Scattered Clouds  
Wind Chill: 64°   Ceiling: Unl
Heat Index: 64°   Visibility: 6mi
Dew Point: 55°   Wind: 8mph
Humidity: 73%   Direction: 320°NW
Pressure: 30.21"   Gusts: NA
Location:  34.88°N, 136.85°E
Report Text: RJGG 250100Z 32007KT 9999 FEW015 SCT/// 18/13 Q1023 BECMG 23005KT
Loading
Personal Weather Stations






























Interactive Weather Map
Tropical Storm Tracking
New forecast layout! Learn more

10-Day Weather Forecast

Advertisements
Track Severe Weather on mobile